Flag for U.S.A. Weather past 2 weeks in Springfield, Massachusetts, U.S.A.

Now
72 °F

Passing clouds.


Feels Like: 75 °F
Forecast: 49 / 72 °F
Wind: 16 mph from Northwest

Location: Barnes Municipal Airport

Current Time: May 22, 2015 at 2:44:27 PM

Latest Report: May 22, 2015 at 1:53 PM


Visibility: 10 mi

Pressure: 29.84 "Hg

Humidity: 22%

Dew point: 31 °F

Location of SpringfieldLocation

Historic Weather in Springfield — Graph

°F

Springfield temperature yesterday

Maximum temperature yesterday: 67 °F (at 2:53 PM)
Minimum temperature yesterday: 41 °F (at 4:53 AM)
Average temperature yesterday: 56 °F

Past Weeks' High & Low Weather Summary

 TemperatureHumidityPressure
High92 °F (May 10, 3:53 PM)94% (May 11, 4:53 AM)30.39 "Hg (May 11, 4:53 AM)
Low35 °F (May 14, 6:01 AM)16% (May 7, 3:53 PM)29.66 "Hg (May 12, 3:53 PM)
Average65 °F57%30.06 "Hg
* Reported May 7 12:53 PM — May 22 12:53 PM, Springfield, Weather by CustomWeather, © 2015

Note: Actual official high and low records may vary slightly from our data, if they occured in-between our weather recording intervals... More about our weather records

Advertising

Springfield weather history for previous 24 hours

 ConditionsComfort  
Time TempWeatherWind HumidityBarometerVisibility
12:53 PM
Fri, May 22
72 °FScattered clouds.15 mph29%29.84 "Hg10 mi
11:53 AM71 °FScattered clouds.17 mph28%29.84 "Hg10 mi
10:53 AM69 °FSunny.14 mph31%29.85 "Hg10 mi
9:53 AM66 °FSunny.14 mph34%29.85 "Hg10 mi
8:53 AM62 °FSunny.16 mph43%29.85 "Hg10 mi
7:53 AM60 °FSunny.No wind49%29.85 "Hg10 mi
6:53 AM56 °FScattered clouds.3 mph62%29.85 "Hg10 mi
5:53 AM54 °FMostly cloudy.No wind62%29.83 "Hg10 mi
4:53 AM54 °FOvercast.5 mph64%29.83 "Hg10 mi
3:53 AM51 °FOvercast.3 mph77%29.83 "Hg10 mi
2:53 AM52 °FOvercast.3 mph75%29.83 "Hg10 mi
1:53 AM53 °FOvercast.5 mph69%29.83 "Hg10 mi
12:53 AM54 °FOvercast.6 mph64%29.85 "Hg10 mi
11:53 PM
Thu, May 21
54 °FPassing clouds.5 mph59%29.86 "Hg10 mi
10:53 PM56 °FMostly cloudy.8 mph53%29.87 "Hg10 mi
9:53 PM58 °FOvercast.9 mph47%29.89 "Hg10 mi
8:53 PM59 °FOvercast.9 mph46%29.87 "Hg10 mi
7:53 PM62 °FOvercast.5 mph34%29.86 "Hg10 mi
6:53 PM64 °FOvercast.9 mph29%29.85 "Hg10 mi
5:53 PM65 °FOvercast.9 mph28%29.86 "Hg10 mi
4:53 PM66 °FOvercast.7 mph27%29.87 "Hg10 mi
3:53 PM67 °FOvercast.9 mph24%29.88 "Hg10 mi
2:53 PM67 °FOvercast.5 mph22%29.89 "Hg10 mi
Weather by CustomWeather, © 2015

See weather overviewHow to use our weather pages